Meteo pe oră la Dabie

Astăzi, 15 Aprilie, Joi

Timp Temperatura Precipitaţii Vânt Presiune Umiditate
00:00 -1°C° 0.5 mm 6 m/s 751 mmHg 96%
01:00 -1°C° 0.5 mm 6 m/s 751 mmHg 97%
02:00 -1°C° 0.2 mm 6 m/s 750 mmHg 97%
03:00 +1°C° 0.2 mm 6 m/s 750 mmHg 97%
04:00 +1°C° 0.2 mm 6 m/s 750 mmHg 96%
05:00 +1°C° 0.2 mm 6 m/s 750 mmHg 95%
06:00 +1°C° 0.2 mm 6 m/s 750 mmHg 94%
07:00 +1°C° 0.2 mm 6 m/s 750 mmHg 92%
08:00 +2°C° 0.4 mm 6 m/s 750 mmHg 91%
09:00 +2°C° 0.4 mm 6 m/s 751 mmHg 89%
10:00 +2°C° 0.4 mm 6 m/s 751 mmHg 88%
11:00 +2°C° 0.1 mm 6 m/s 751 mmHg 87%
12:00 +3°C° 0.1 mm 6 m/s 751 mmHg 86%
13:00 +3°C° 0.1 mm 6 m/s 751 mmHg 85%
14:00 +3°C° 0 mm 6 m/s 751 mmHg 85%
15:00 +3°C° 0 mm 6 m/s 751 mmHg 84%
16:00 +3°C° 0 mm 6 m/s 751 mmHg 84%
17:00 +3°C° 0 mm 5 m/s 751 mmHg 83%
18:00 +3°C° 0 mm 5 m/s 751 mmHg 83%
19:00 +3°C° 0 mm 5 m/s 751 mmHg 82%
20:00 +3°C° 0.1 mm 5 m/s 751 mmHg 84%
21:00 +2°C° 0.1 mm 5 m/s 751 mmHg 86%
22:00 +2°C° 0.1 mm 5 m/s 750 mmHg 89%
23:00 +2°C° 0.1 mm 5 m/s 750 mmHg 89%

Mâine, 16 Aprilie, Vineri

Timp Temperatura Precipitaţii Vânt Presiune Umiditate
00:00 +2°C° 0.1 mm 5 m/s 750 mmHg 90%
01:00 +2°C° 0.1 mm 5 m/s 750 mmHg 91%
02:00 +2°C° 0 mm 5 m/s 749 mmHg 91%
03:00 +2°C° 0 mm 5 m/s 749 mmHg 91%
04:00 +2°C° 0 mm 5 m/s 749 mmHg 91%
05:00 +2°C° 0.1 mm 5 m/s 749 mmHg 92%
06:00 +2°C° 0.1 mm 5 m/s 749 mmHg 92%
07:00 +2°C° 0.1 mm 5 m/s 749 mmHg 93%
08:00 +3°C° 0 mm 5 m/s 749 mmHg 93%
09:00 +4°C° 0 mm 4 m/s 749 mmHg 93%
10:00 +4°C° 0 mm 4 m/s 749 mmHg 94%
11:00 +5°C° 0 mm 4 m/s 749 mmHg 91%
12:00 +6°C° 0 mm 5 m/s 749 mmHg 88%
13:00 +7°C° 0 mm 5 m/s 749 mmHg 85%
14:00 +7°C° 0 mm 4 m/s 750 mmHg 86%
15:00 +7°C° 0 mm 4 m/s 750 mmHg 87%
16:00 +7°C° 0 mm 4 m/s 750 mmHg 88%
17:00 +8°C° 0 mm 3 m/s 750 mmHg 89%
18:00 +7°C° 0 mm 3 m/s 750 mmHg 91%
19:00 +7°C° 0 mm 3 m/s 751 mmHg 93%
20:00 +6°C° 0 mm 4 m/s 751 mmHg 94%
21:00 +6°C° 0 mm 4 m/s 751 mmHg 94%
22:00 +6°C° 0 mm 4 m/s 751 mmHg 95%
23:00 +6°C° 0.1 mm 4 m/s 751 mmHg 96%

Poimâine, 17 Aprilie, Sâmbătă

Timp Temperatura Precipitaţii Vânt Presiune Umiditate
00:00 +6°C° 0.1 mm 4 m/s 751 mmHg 96%
01:00 +6°C° 0.1 mm 4 m/s 750 mmHg 97%
02:00 +6°C° 0.2 mm 4 m/s 751 mmHg 97%
03:00 +7°C° 0.2 mm 3 m/s 751 mmHg 97%
04:00 +7°C° 0.2 mm 3 m/s 751 mmHg 97%
05:00 +7°C° 0 mm 3 m/s 751 mmHg 95%
06:00 +7°C° 0 mm 4 m/s 751 mmHg 93%
07:00 +7°C° 0 mm 4 m/s 751 mmHg 91%
08:00 +7°C° 0 mm 4 m/s 752 mmHg 88%
09:00 +8°C° 0 mm 4 m/s 752 mmHg 86%
10:00 +8°C° 0 mm 4 m/s 752 mmHg 83%
11:00 +10°C° 0.1 mm 4 m/s 752 mmHg 80%
12:00 +10°C° 0.1 mm 4 m/s 752 mmHg 78%
13:00 +11°C° 0.1 mm 4 m/s 752 mmHg 75%
14:00 +11°C° 0 mm 3 m/s 752 mmHg 71%
15:00 +12°C° 0 mm 3 m/s 752 mmHg 67%
16:00 +13°C° 0 mm 3 m/s 752 mmHg 63%
17:00 +11°C° 0.2 mm 3 m/s 752 mmHg 72%
18:00 +10°C° 0.2 mm 3 m/s 752 mmHg 80%
19:00 +9°C° 0.2 mm 3 m/s 752 mmHg 89%
20:00 +8°C° 0.2 mm 3 m/s 752 mmHg 90%
21:00 +8°C° 0.2 mm 3 m/s 753 mmHg 91%
22:00 +8°C° 0.2 mm 3 m/s 753 mmHg 93%
23:00 +7°C° 0 mm 2 m/s 752 mmHg 94%

18 Aprilie, Duminică

Timp Temperatura Precipitaţii Vânt Presiune Umiditate
00:00 +7°C° 0 mm 2 m/s 752 mmHg 95%
01:00 +7°C° 0 mm 2 m/s 752 mmHg 97%
02:00 +7°C° 0.1 mm 2 m/s 752 mmHg 97%
03:00 +7°C° 0.1 mm 2 m/s 752 mmHg 97%
04:00 +7°C° 0.1 mm 2 m/s 752 mmHg 97%
05:00 +7°C° 0.7 mm 2 m/s 752 mmHg 97%
06:00 +7°C° 0.7 mm 2 m/s 752 mmHg 97%
07:00 +8°C° 0.7 mm 1 m/s 752 mmHg 96%
08:00 +7°C° 0.2 mm 2 m/s 752 mmHg 92%
09:00 +8°C° 0.2 mm 2 m/s 753 mmHg 89%
10:00 +8°C° 0.2 mm 2 m/s 753 mmHg 85%
11:00 +9°C° 0.1 mm 2 m/s 753 mmHg 79%
12:00 +10°C° 0.1 mm 3 m/s 753 mmHg 73%
13:00 +11°C° 0.1 mm 3 m/s 753 mmHg 67%
14:00 +11°C° 0 mm 3 m/s 753 mmHg 66%
15:00 +11°C° 0 mm 3 m/s 753 mmHg 64%
16:00 +12°C° 0 mm 2 m/s 753 mmHg 63%
17:00 +10°C° 0 mm 2 m/s 753 mmHg 65%
18:00 +10°C° 0 mm 2 m/s 753 mmHg 67%
19:00 +10°C° 0 mm 1 m/s 753 mmHg 69%
20:00 +10°C° 0 mm 1 m/s 753 mmHg 69%
21:00 +9°C° 0 mm 2 m/s 753 mmHg 69%
22:00 +9°C° 0 mm 2 m/s 753 mmHg 69%
23:00 +9°C° 0 mm 2 m/s 753 mmHg 70%

19 Aprilie, Luni

Timp Temperatura Precipitaţii Vânt Presiune Umiditate
00:00 +8°C° 0 mm 2 m/s 753 mmHg 72%
01:00 +8°C° 0 mm 2 m/s 753 mmHg 73%
02:00 +8°C° 0 mm 2 m/s 753 mmHg 74%
03:00 +8°C° 0 mm 2 m/s 752 mmHg 75%
04:00 +8°C° 0 mm 3 m/s 752 mmHg 76%
05:00 +8°C° 0 mm 3 m/s 752 mmHg 77%
06:00 +9°C° 0 mm 3 m/s 752 mmHg 78%
07:00 +9°C° 0 mm 3 m/s 752 mmHg 78%
08:00 +11°C° 0 mm 4 m/s 752 mmHg 71%
09:00 +12°C° 0 mm 4 m/s 751 mmHg 64%
10:00 +13°C° 0 mm 5 m/s 751 mmHg 56%
11:00 +14°C° 0.1 mm 5 m/s 751 mmHg 56%
12:00 +14°C° 0.1 mm 5 m/s 750 mmHg 55%
13:00 +14°C° 0.1 mm 4 m/s 750 mmHg 54%
14:00 +14°C° 0.1 mm 5 m/s 750 mmHg 59%
15:00 +13°C° 0.1 mm 5 m/s 749 mmHg 64%
16:00 +13°C° 0.1 mm 5 m/s 749 mmHg 69%
17:00 +12°C° 0.2 mm 4 m/s 749 mmHg 75%
18:00 +11°C° 0.2 mm 4 m/s 749 mmHg 82%
19:00 +10°C° 0.2 mm 3 m/s 748 mmHg 89%
20:00 +8°C° 0 mm 4 m/s 748 mmHg 90%
21:00 +8°C° 0 mm 4 m/s 748 mmHg 91%
22:00 +7°C° 0 mm 4 m/s 747 mmHg 92%
23:00 +7°C° 0 mm 4 m/s 747 mmHg 92%

20 Aprilie, Marţi

Timp Temperatura Precipitaţii Vânt Presiune Umiditate
00:00 +7°C° 0 mm 4 m/s 746 mmHg 92%
01:00 +7°C° 0 mm 4 m/s 746 mmHg 92%
02:00 +7°C° 0.2 mm 4 m/s 746 mmHg 92%
03:00 +7°C° 0.2 mm 5 m/s 745 mmHg 92%
04:00 +7°C° 0.2 mm 5 m/s 745 mmHg 92%
05:00 +7°C° 0.1 mm 5 m/s 744 mmHg 92%
06:00 +7°C° 0.1 mm 5 m/s 744 mmHg 92%
07:00 +7°C° 0.1 mm 5 m/s 744 mmHg 92%
08:00 +7°C° 0.1 mm 5 m/s 743 mmHg 91%
09:00 +7°C° 0.1 mm 5 m/s 743 mmHg 90%
10:00 +7°C° 0.1 mm 5 m/s 743 mmHg 90%
11:00 +6°C° 0.1 mm 5 m/s 742 mmHg 90%
12:00 +6°C° 0.1 mm 5 m/s 742 mmHg 90%
13:00 +6°C° 0.1 mm 5 m/s 741 mmHg 90%
14:00 +6°C° 0.5 mm 5 m/s 741 mmHg 91%
15:00 +5°C° 0.5 mm 5 m/s 741 mmHg 92%
16:00 +5°C° 0.5 mm 5 m/s 740 mmHg 93%
17:00 +3°C° 0.2 mm 5 m/s 740 mmHg 94%
18:00 +4°C° 0.2 mm 4 m/s 740 mmHg 95%
19:00 +4°C° 0.2 mm 4 m/s 739 mmHg 95%
20:00 +3°C° 0.2 mm 4 m/s 739 mmHg 96%
21:00 +3°C° 0.2 mm 4 m/s 739 mmHg 96%
22:00 +3°C° 0.2 mm 4 m/s 738 mmHg 96%
23:00 +3°C° 0.5 mm 4 m/s 738 mmHg 96%
Arată mai mult

Formular de consimțământ

Meteoprog și furnizorii noștri de servicii pot stoca și accesa date personale, precum cookies, identificatori de dispozitiv sau alte tehnologii similare pe dispozitivul dumneavoastră și procesa astfel de date pentru a personaliza conținutul și reclamele, dar și pentru a oferi caracteristici de social media și pentru a analiza traficul.

  • Stocarea și/sau accesarea informațiilor pe dispozitivul dumneavoastră

    Cookies, identificatori de dispozitiv sau alte informații pot fi stocate sau accesate pe dispozitiv în scopurile indicate mai sus.

  • Reclame și conținut personalizat, evaluarea reclamelor și a conținutului, informații despre audiențe și dezvoltarea produselor

    Reclamele și conținutul pot fi personalizate pe baza unui profil. Pot fi adăugate date suplimentare pentru a personaliza mai bine reclamele și conținutul. Performanța reclamelor și conținutului poate fi măsurată. Pot fi obținute informații despre utilizatorii care au văzut reclamele și conținutul. Aceste date pot fi utilizate pentru a dezvolta sau îmbunătăți experiența utilizatorilor, sistemele și software-ul.

Dând clic pe ‘Sunt de acord’, permiteți utilizarea cookie-urilor menționate, a identificatorilor de dispozitiv, balizelor web sau altor tehnologii similare. Setările pot fi modificate din browser-ul dispozitivului dumneavoastră.

În anumite scopuri, interesele legitime pot prima asupra consimțământului. Puteți citi mai multe informații în acest sens în Politica privind Confidențialitatea Datelor și Cookie.